Regional Weather Roundup
Issued by NWS Green Bay, WI

Home | Current Version | Previous Version | Graphics & Text | Print | Product List | Glossary Off
Versions: 1 2 3 4 5 6 7 8 9 10 11 12 13 14 15 16 17 18 19 20 21 22 23 24 25 26 27 28 29 30 31 32 33 34 35 36 37 38 39 40 41 42 43 44 45 46 47 48 49 50

000
ASUS43 KGRB 092100
RWRGRB

NORTH-CENTRAL AND NORTHEAST WISCONSIN REGIONAL WEATHER ROUNDUP
NATIONAL WEATHER SERVICE GREEN BAY WI
300 PM CST TUE FEB 09 2016

WIZ005-009-010>012-018-019-092200-
NORTH CENTRAL WISCONSIN

CITY           SKY/WX    TMP DP  RH WIND       PRES   REMARKS
IRONWOOD       CLOUDY    10   5  79 N13G21    29.93R WCI  -5
MANITOWISH WTR NOT AVBL
ARBOR VITAE    NOT AVBL
EAGLE RIVER    NOT AVBL
LAND O LAKES   NOT AVBL
RHINELANDER    CLOUDY    12   1  61 N12G23    29.84R WCI  -2
PHILLIPS       NOT AVBL
ANTIGO         NOT AVBL
TOMAHAWK       NOT AVBL
MERRILL        NOT AVBL
$$

WIZ013-073-092200-
NORTHEAST WISCONSIN

CITY           SKY/WX    TMP DP  RH WIND       PRES   REMARKS
IRON MOUNTAIN  LGT SNOW  13   4  67 N16       29.81R WCI  -3
MARINETTE      CLOUDY    18   7  62 N16G22    29.81R WCI   3
$$

WIZ017-030-035>037-045-092200-
CENTRAL WISCONSIN

CITY           SKY/WX    TMP DP  RH WIND       PRES   REMARKS
MEDFORD        NOT AVBL
WAUSAU         CLOUDY    16   5  62 NW14G23   29.84R WCI   2
MOSINEE        NOT AVBL
MARSHFIELD     CLOUDY    13   3  64 NW17      29.88R WCI  -4
WISC RAPIDS    CLOUDY    14   3  61 N21G32    29.90R WCI  -4
STEVENS POINT  NOT AVBL
WAUPACA        NOT AVBL
SHAWANO        NOT AVBL
CLINTONVILLE   NOT AVBL
WAUTOMA        NOT AVBL
$$

WIZ038-039-048-051-092200-
FOX VALLEY

CITY           SKY/WX    TMP DP  RH WIND       PRES   REMARKS
NWS GREEN BAY  CLOUDY    19   7  59 N14       29.83R WCI   6
APPLETON       CLOUDY    18   7  62 NW15G22     N/A  WCI   3
OSHKOSH        LGT SNOW  17  10  74 W15       29.83R WCI   2
FOND DU LAC    LGT SNOW  17  10  74 NW15      29.83S WCI   2
$$

WIZ022-050-052-092200-
EAST CENTRAL WISCONSIN

CITY           SKY/WX    TMP DP  RH WIND       PRES   REMARKS
EPHRAIM        NOT AVBL
STURGEON BAY   CLOUDY    18   7  62 NW21      29.82R WCI   1
MANITOWOC      NOT AVBL
SHEBOYGAN      FLURRIES  18   9  68 NW12      29.81R WCI   5
$$

LMZ563-521-522-541>543-092200-
LAKESHORE

STATION/POSITION TIME  TEMP    WIND        PRES    VSBY  WAVE
                       AIR SEA DIR/SP/G                  HT/PER
                 (UTC) (F)     (DEG/KT/KT) (MB)    (MI)  (FT/S)
SHEBOYGAN LKSHOR 2000   18     330/ 19/ 22 1010.7R
KEWAUNEE LKSHORE 2000   18     330/ 13/ 20 1008.3R
ALGOMA MARINA    2011          330/ 18/ 23   N/A
CHAMBERS ISLAND  2000   19     300/ 19/ 26 1008.5S
MENOMINEE LKSHOR 2000   18     300/ 13     1008.1R
$$



USA.gov is the U.S. government's official web portal to all federal, state and local government web resources and services.